sat.trackr.live / text

‹ back to catalog

AJISAI (EGS)

NORAD 16908 · 1986-061A

PAYLOAD ACTIVE UNKNOWN

§ Identity

Operator
Country
JPN
Launch date
1986-08-12
Launch site
TANSC
Launch vehicle
Mass (kg)
RCS (m²)
4.23

Purposes: science

External: N2YO · Heavens-Above · Gunter

§ Orbital elements

Epoch: 2026-09-13T03:58:17.376096Z

Period
115.71 min
Inclination
50.0073°
Eccentricity
0.0011310
Mean motion
12.44517364 rev/d
Perigee alt
1,478.6 km
Apogee alt
1,496.4 km
Semi-major
7,865.6 km
B*
-9.9584e-5
RAAN
236.8650°
Arg perigee
44.3161°
Mean anomaly
86.4977°
Rev number
49,134

§ Raw data

AJISAI (EGS)1 16908U 86061A   26256.16547889 -.00000112  00000+0 -99584-4 0  99982 16908  50.0073 236.8650 0011310  44.3161  86.4977 12.44517364491345

JSON: /api/v1/satellites/16908 · /tle

For live sub-satellite position, see the globe view (requires WebGL).

§ Visibility from observer

Set your observer location to see the next 7 days of passes ≥ 10°. The values pass through the URL so the page stays shareable.

No JS? Fill the form by hand. The geolocation button needs JavaScript.